Regional Weather Roundup
Issued by NWS

Home | Current Version | Previous Version | Graphics & Text | Print | Product List | Glossary On
Versions: 1 2 3 4 5 6 7 8 9 10 11 12 13 14 15 16 17 18 19 20 21 22 23 24 25 26 27 28 29 30 31 32 33 34 35 36 37 38 39 40 41 42 43 44 45 46 47 48 49 50
000
ASUS43 KFSD 180010
RWRSD

WEATHER ROUNDUP FOR SOUTH DAKOTA
NATIONAL WEATHER SERVICE SIOUX FALLS SD
700 PM CDT WED SEP 17 2014

NOTE: "FAIR" INDICATES FEW OR NO CLOUDS BELOW 12,000 FEET WITH NO
SIGNIFICANT WEATHER AND/OR OBSTRUCTIONS TO VISIBILITY.


SDZ001>005-009-010-012>017-180100-
NORTHWEST AND NORTH CENTRAL SOUTH DAKOTA

CITY           SKY/WX    TMP DP  RH WIND       PRES   REMARKS
BUFFALO          N/A     73  52  47 SE15      29.87F
FAITH            N/A     69  55  60 NE13      29.96S
MOBRIDGE       CLOUDY    67  49  52 E7        29.96R
$$

SDZ012>016-024>037-041>051-057-063-072>074-180100-
SOUTHWEST AND SOUTH CENTRAL SOUTH DAKOTA

CITY           SKY/WX    TMP DP  RH WIND       PRES   REMARKS
RAPID CTY ARPT PTCLDY    78  51  38 E10       29.92S
PIERRE         PTCLDY    73  50  44 E10       29.92R
CUSTER         SUNNY     72  38  29 SE10      30.04S
ELLSWORTH AFB  MOCLDY    77  51  40 SE9       29.92S
PHILIP         PTCLDY    76  52  43 E12       29.91R
PINE RIDGE     PTCLDY    79  51  37 E9        29.91F
WINNER         FAIR      73  56  54 E10       29.93R
$$

SDZ004>011-016>023-039-040-180100-
NORTHEAST SOUTH DAKOTA

CITY           SKY/WX    TMP DP  RH WIND       PRES   REMARKS
ABERDEEN       MOCLDY    65  52  62 N6        29.97R
WATERTOWN      CLEAR     68  51  54 E6        29.97R
SISSETON         N/A     66  55  67 E3        29.95R
$$

SDZ017-020-022-023-036>040-048>070-180100-
SOUTHEAST SOUTH DAKOTA

CITY           SKY/WX    TMP DP  RH WIND       PRES   REMARKS
SIOUX FALLS    MOCLDY    73  55  53 NE6       29.93R
HURON          PTCLDY    73  49  42 N3        29.93S
CHAMBERLAIN    CLEAR     71  57  61 CALM      29.94R
MITCHELL       PTCLDY    75  59  57 NE5       29.93R
YANKTON        PTCLDY    75  59  57 NE6       29.91S
$$

ABBREVIATIONS USED IN REMARKS
   TC - TEMPERATURE IN CELSIUS
  WCI - WIND CHILL INDEX
   HX - HEAT INDEX
  VSB - VISIBILITY




USA.gov is the U.S. government's official web portal to all federal, state and local government web resources and services.